Regional Weather Roundup
Issued by NWS

Home | Current Version | Previous Version | Graphics & Text | Print | Product List | Glossary On
Versions: 1 2 3 4 5 6 7 8 9 10 11 12 13 14 15 16 17 18 19 20 21 22 23 24 25 26 27 28 29 30 31 32 33 34 35 36 37 38 39 40 41 42 43 44 45 46 47 48 49 50
000
ASUS43 KIND 271759
RWRIN

WEATHER ROUNDUP FOR INDIANA
NATIONAL WEATHER SERVICE INDIANAPOLIS IN
200 PM EDT FRI MAY 27 2016

NOTE: "FAIR" INDICATES FEW OR NO CLOUDS BELOW 12,000 FEET WITH NO
SIGNIFICANT WEATHER AND/OR OBSTRUCTIONS TO VISIBILITY.

* - STATION DOES NOT REPORT WEATHER SUCH AS PRECIPITATION OR FOG.

+ - STATION NOT QUALITY CONTROLLED BY THE NATIONAL WEATHER SERVICE.
    USE DATA WITH CAUTION...ESPECIALLY DEWPOINT AND RELATIVE
    HUMIDITY OBSERVATIONS.

INZ001>003-010>013-019-020-271900-
NORTHWEST INDIANA

CITY           SKY/WX    TMP DP  RH WIND       PRES   REMARKS
GARY /AIRPORT/ PTSUNNY   82  72  69 S6        29.92S
RENSSELAER +   MOSUNNY   82  64  54 S15G21    29.93F

$$

LMZ046-743>745-271900-
SOUTHERN LAKE MICHIGAN

STATION/POSITION TIME  TEMP    WIND        PRES    WAVE
                       AIR SEA DIR/SP/G            HT
                 (UTC) (F)     (DEG/KT/KT) (MB)    (FT)
BURNS HARBOR     1700   77     200/ 11/ 17 1013.5F
MICHIGAN CITY    1700   76     170/ 12/ 15   N/A
5NW MICH CITY    1700   68 59  220/  6/ 10   N/A     1

$$

INZ004-005-014>016-021>024-271900-
NORTH CENTRAL INDIANA

CITY           SKY/WX    TMP DP  RH WIND       PRES   REMARKS
GOSHEN         CLOUDY    79  63  57 S10       29.97F
6HR MIN TEMP:  67; 6HR MAX TEMP:  81; 6HR PCP: TRACE;

SOUTH BEND     CLOUDY    78  65  63 S13       29.96F
6HR MIN TEMP:  67; 6HR MAX TEMP:  79; 6HR PCP: TRACE;


$$

INZ006>009-017-018-025>027-271900-
NORTHEAST INDIANA

CITY           SKY/WX    TMP DP  RH WIND       PRES   REMARKS
ANGOLA *+        N/A     79  72  78 S7        29.99F
FORT WAYNE     PTSUNNY   84  61  45 SW16      29.99F
6HR MIN TEMP:  67; 6HR MAX TEMP:  84; 6HR PCP: TRACE;


$$

INZ028-029-035-036-043>045-051>053-271900-
WEST CENTRAL INDIANA

CITY           SKY/WX    TMP DP  RH WIND       PRES   REMARKS
CRAWFORDSVL +  PTSUNNY   80  66  61 S17       29.96S
6HR MIN TEMP:  64; 6HR MAX TEMP:  81;

GREENCASTLE +  CLOUDY    79  70  73 S12G22    29.97F
LAFAYETTE      PTSUNNY   81  64  56 S10G25    29.93F
6HR MIN TEMP:  66; 6HR MAX TEMP:  82;

TERRE HAUTE    MOSUNNY   82  69  64 S13G20    29.95F
6HR MIN TEMP:  67; 6HR MAX TEMP:  82;


$$

INZ030>032-037>040-046>048-054>057-064-065-271900-
CENTRAL INDIANA

CITY           SKY/WX    TMP DP  RH WIND       PRES   REMARKS
ANDERSON       MOSUNNY   84  63  48 SW12G17   30.00F
COLUMBUS       MOSUNNY   84  64  51 S18G31    29.99F
INDIANAPOLIS   CLOUDY    80  65  59 S13       29.97F
6HR MIN TEMP:  66; 6HR MAX TEMP:  82;

-EAGLE CREEK   CLOUDY    82  64  54 SW10G18   29.97F
6HR MIN TEMP:  67; 6HR MAX TEMP:  82;

KOKOMO *+      MOSUNNY   84  63  48 SW15G24   29.96F
6HR MIN TEMP:  66; 6HR MAX TEMP:  84;

SHELBYVILLE    MOSUNNY   85  64  49 S16       29.99F
6HR MIN TEMP:  67; 6HR MAX TEMP:  85;


$$

INZ033-034-041-042-049-050-058-059-271900-
EAST CENTRAL INDIANA

CITY           SKY/WX    TMP DP  RH WIND       PRES   REMARKS
MUNCIE         SUNNY     86  58  38 S16       29.99F
6HR MIN TEMP:  68; 6HR MAX TEMP:  86;


$$

INZ060-061-067>069-081>083-085>088-271900-
SOUTHWEST INDIANA

CITY           SKY/WX    TMP DP  RH WIND       PRES   REMARKS
EVANSVILLE     PTSUNNY   81  64  56 S17G26    29.95F
6HR MIN TEMP:  67; 6HR MAX TEMP:  82;

HUNTINGBURG *+ MOSUNNY   82  64  54 S14G22    29.97F
6HR MIN TEMP:  66; 6HR MAX TEMP:  82;


$$

INZ062-063-066-070>080-084-089>092-271900-
SOUTH CENTRAL AND SOUTHEAST INDIANA

CITY           SKY/WX    TMP DP  RH WIND       PRES   REMARKS
BLOOMINGTON    PTSUNNY   82  66  58 S10       29.97F
6HR MIN TEMP:  65; 6HR MAX TEMP:  82;

MADISON *+     SUNNY     82  61  47 SW10      30.04S
SEYMOUR +      PTSUNNY   84  64  51 S9        29.99F

$$





USA.gov is the U.S. government's official web portal to all federal, state and local government web resources and services.